User: anonymous   Login
Location: Mentone
(34.5413°N, 85.5351°W)
Time: 11:57:23
(UTC-06:00)
Language:

Tiros 1 despin weight - Orbit

View from above orbital plane
View from above orbital plane
View from above satellite
View from above satellite

Ground track
Ground track

The orbit data is extracted from the following two-line orbital elements,

1 00115U 60002D   14354.91041381  .00002967  00000-0  39921-3 0  5378
2 00115 048.1635 189.1497 0035170 057.8200 077.1464 14.81385366915316
Epoch (UTC): 20 December 2014 21:50:59
Eccentricity: 0.0035170
inclination: 48.1635°
perigee height: 600 km
apogee height: 649 km
right ascension of ascending node: 189.1497°
argument of perigee: 57.8200°
revolutions per day: 14.81385366
mean anomaly at epoch: 77.1464°
orbit number at epoch: 91531

The dashed part of the orbit path shows where the satellite is in the earth's shadow,  

DLR